Regional Weather Roundup
Issued by NWS

Home | Current Version | Previous Version | Text Only | Print | Product List | Glossary Off
Versions: 1 2 3 4 5 6 7 8 9 10 11 12 13 14 15 16 17 18 19 20 21 22 23 24 25 26 27 28 29 30 31 32 33 34 35 36 37 38 39 40 41 42 43 44 45 46 47 48 49 50

000
ASUS45 KPSR 030600
RWRAZ

ARIZONA REGIONAL HOURLY WEATHER ROUNDUP
NATIONAL WEATHER SERVICE PHOENIX AZ
1100 PM MST SAT MAY 02 2015

NOTE: FAIR INDICATES FEW OR NO CLOUDS BELOW 12,000 FEET WITH NO
SIGNIFICANT WEATHER AND/OR OBSTRUCTIONS TO VISIBILITY.

AZZ001>003-036-030700-
NORTHWEST ARIZONA

CITY           SKY/WX    TMP DP  RH WIND       PRES   REMARKS
KINGMAN        CLEAR     72  34  24 S14       29.89R
6HR MIN TEMP:  67; 6HR MAX TEMP:  86;

$$

AZZ004>008-015-016-018-030700-
NORTH CENTRAL ARIZONA

CITY           SKY/WX    TMP DP  RH WIND       PRES   REMARKS
GRAND CANYON   PTCLDY    38  29  70 CALM      30.09F
6HR MIN TEMP:  38; 6HR MAX TEMP:  64; 6HR PCP: TRACE;

WILLIAMS       MOCLDY    57  30  35 SE5       30.17F
PRESCOTT       PTCLDY    57  34  41 S8        30.01R
6HR MIN TEMP:  57; 6HR MAX TEMP:  77;

FLAGSTAFF      NOT AVBL
PAYSON         MOCLDY    64  30  27 N5        30.04S
PAGE           PTCLDY    69  30  23 SW3       29.92S
6HR MIN TEMP:  69; 6HR MAX TEMP:  79;

$$

AZZ009>014-017-030700-
NORTHEAST ARIZONA

CITY           SKY/WX    TMP DP  RH WIND       PRES   REMARKS
WINSLOW        NOT AVBL
SAINT JOHNS    PTCLDY    53  35  50 S5        30.06F
6HR MIN TEMP:  53; 6HR MAX TEMP:  67;

WINDOW ROCK    MOCLDY    48  42  80 CALM      30.13F
6HR MIN TEMP:  47; 6HR MAX TEMP:  57; 6HR PCP: TRACE;

$$

AZZ023-030700-
GREATER PHOENIX AREA

CITY           SKY/WX    TMP DP  RH WIND       PRES   REMARKS
PHOENIX        MOCLDY    86  38  18 W10       29.78R
6HR MIN TEMP:  86; 6HR MAX TEMP:  97;

LUKE AFB       CLEAR     82  40  22 S12       29.77R
6HR MIN TEMP:  82; 6HR MAX TEMP:  96;

DEER VALLEY    CLEAR     81  38  21 SW8       29.80R
6HR MIN TEMP:  81; 6HR MAX TEMP:  94;

SCOTTSDALE     PTCLDY    84  36  18 SW10      29.82R
6HR MIN TEMP:  84; 6HR MAX TEMP:  95;

MESA-GATEWAY   PTCLDY    82  37  20 SW14      29.82R
$$

AZZ027-028-030700-
SOUTHWEST MARICOPA COUNTY AND PINAL COUNTY

CITY           SKY/WX    TMP DP  RH WIND       PRES   REMARKS
CASA GRANDE    PTCLDY    77  39  25 SW6       29.82S
6HR MIN TEMP:  77; 6HR MAX TEMP:  95;

GILA BEND      FAIR      81  39  22 S2        29.80R
6HR MIN TEMP:  80; 6HR MAX TEMP:  98; 6HR PCP: TRACE;

$$

AZZ503-504-507>509-030700-
SOUTHEAST ARIZONA

CITY           SKY/WX    TMP DP  RH WIND       PRES   REMARKS
TUCSON         CLEAR     74  41  30 CALM      29.94R
6HR MIN TEMP:  74; 6HR MAX TEMP:  89;

NOGALES        CLEAR     67  38  34 W5        30.01R
6HR MIN TEMP:  66; 6HR MAX TEMP:  85;

SIERRA VISTA   CLEAR     66  36  32 NW5       30.04S
6HR MIN TEMP:  65; 6HR MAX TEMP:  75;

SAFFORD        MOCLDY    78  32  18 W5        29.88S
6HR MIN TEMP:  77; 6HR MAX TEMP:  90;

$$

AZZ020-021-025-026-031-030700-
SOUTHWEST ARIZONA

CITY           SKY/WX    TMP DP  RH WIND       PRES   REMARKS
YUMA           NOT AVBL
$$

CAZ031-033-041-043-047-048-061-030700-
SOUTHERN CALIFORNIA

CITY           SKY/WX    TMP DP  RH WIND       PRES   REMARKS
DOWNTOWN L.A.  CLEAR     60  52  74 VRB3      29.88R
6HR MIN TEMP:  60; 6HR MAX TEMP:  73;

L.A. AIRPORT   CLEAR     58  53  84 S10       29.88R
6HR MIN TEMP:  58; 6HR MAX TEMP:  65;

SAN DIEGO      MOCLDY    64  56  75 S5        29.92R
6HR MIN TEMP:  63; 6HR MAX TEMP:  68;

BURBANK        CLEAR     63  49  60 SE12      29.87R
6HR MIN TEMP:  63; 6HR MAX TEMP:  86;

ONTARIO        CLEAR     62  50  64 W9        29.88R
6HR MIN TEMP:  61; 6HR MAX TEMP:  85;

RIVERSIDE      CLEAR     64  48  56 W3        29.88R
6HR MIN TEMP:  64; 6HR MAX TEMP:  86;

PALM SPRINGS   CLEAR     87  28  12 NW10      29.73S
6HR MIN TEMP:  87; 6HR MAX TEMP:  99;

EL CENTRO NAS  CLEAR     78  46  32 SW9       29.73R
6HR MIN TEMP:  78; 6HR MAX TEMP:  97;

IMPERIAL       CLEAR     79  47  32 CALM      29.71R
6HR MIN TEMP:  79; 6HR MAX TEMP:  97;

BLYTHE         CLEAR     80  43  26 S8        29.74R
6HR MIN TEMP:  80; 6HR MAX TEMP:  97;

$$

NVZ020-UTZ003-030700-
SOUTHERN NEVADA-UTAH

CITY           SKY/WX    TMP DP  RH WIND       PRES   REMARKS
LAS VEGAS      NOT AVBL
SALT LAKE CITY CLOUDY    64  42  44 W6        29.88R
6HR MIN TEMP:  64; 6HR MAX TEMP:  80;

$$

NMZ009-TXZ055-030700-
NEW MEXICO-WEST TEXAS

CITY           SKY/WX    TMP DP  RH WIND       PRES   REMARKS
ALBUQUERQUE    MOCLDY    57  34  41 SE6       30.05S
6HR MIN TEMP:  57; 6HR MAX TEMP:  73;

EL PASO        CLOUDY    81  30  15 W14G21    29.94R
6HR MIN TEMP:  80; 6HR MAX TEMP:  89;

$$


........................KEY........................
SKY/WX - SKY CONDITION/WEATHER
TMP    - TEMPERATURE IN FAHRENHEIT
DP     - DEW POINT IN FAHRENHEIT
RH     - RELATIVE HUMIDITY IN PERCENT
WIND   - DIRECTION AND SPEED IN MILES PER HOUR (MPH)
VRB    - VARIABLE WIND DIRECTION
PRES   - MEAN SEA LEVEL PRESSURE IN INCHES OF MERCURY
         F - FALLING PRESSURE   R - RISING PRESSURE
         S - STEADY PRESSURE
VSB    - VISIBILITY IN MILES
HX     - HEAT INDEX IN FAHRENHEIT
WCI    - WIND CHILL INDEX IN FAHRENHEIT
TC     - TEMPERATURE IN CELSIUS WHICH IS ALSO KNOWN AS
         TEMPERATURE IN CENTIGRADE
AFB    - AIR FORCE BASE
         LUKE AFB IS LUKE AIR FORCE BASE
         DAVIS-MONTHAN IS DAVIS-MONTHAN AIR FORCE BASE
NAS    - NAVAL AIR STATION
         EL CENTRO NAS IS EL CENTRO NAVAL AIR STATION
N/A    - NOT AVAILABLE




USA.gov is the U.S. government's official web portal to all federal, state and local government web resources and services.